• Em Portugal
  • Lista de países
  • Para 7 dias
  • Temperatura da água
  • Mapas de satélite
  • Mapa do tempo
  • Widgets de tempo
  • user-avatar
    Iniciar Sessão

    Previsão horária em Uniechowek

    Hoje, 16 Outubro, Terça-feira

    Tempo Temperatura Precipitação Vento Pressão Humidade
    00:00 +13°C° 0 mm 3 m/s 750 mmHg 61%
    01:00 +13°C° 0 mm 2 m/s 750 mmHg 64%
    02:00 +13°C° 0 mm 2 m/s 750 mmHg 65%
    03:00 +13°C° 0 mm 2 m/s 750 mmHg 66%
    04:00 +12°C° 0 mm 2 m/s 750 mmHg 67%
    05:00 +12°C° 0 mm 2 m/s 750 mmHg 67%
    06:00 +12°C° 0 mm 2 m/s 750 mmHg 67%
    07:00 +12°C° 0 mm 2 m/s 750 mmHg 66%
    08:00 +14°C° 0 mm 2 m/s 751 mmHg 60%
    09:00 +15°C° 0 mm 2 m/s 751 mmHg 53%
    10:00 +17°C° 0 mm 2 m/s 751 mmHg 47%
    11:00 +18°C° 0 mm 2 m/s 751 mmHg 44%
    12:00 +20°C° 0 mm 3 m/s 751 mmHg 41%
    13:00 +21°C° 0 mm 3 m/s 751 mmHg 38%
    14:00 +20°C° 0 mm 2 m/s 751 mmHg 41%
    15:00 +19°C° 0 mm 2 m/s 751 mmHg 44%
    16:00 +19°C° 0 mm 2 m/s 751 mmHg 47%
    17:00 +18°C° 0 mm 2 m/s 751 mmHg 50%
    18:00 +16°C° 0 mm 2 m/s 751 mmHg 53%
    19:00 +15°C° 0 mm 2 m/s 751 mmHg 56%
    20:00 +15°C° 0 mm 1 m/s 751 mmHg 57%
    21:00 +14°C° 0 mm 1 m/s 751 mmHg 59%
    22:00 +14°C° 0 mm 1 m/s 751 mmHg 60%
    23:00 +14°C° 0 mm 1 m/s 751 mmHg 61%

    Amanhã, 17 Outubro, Quarta-feira

    Tempo Temperatura Precipitação Vento Pressão Humidade
    00:00 +13°C° 0 mm 1 m/s 751 mmHg 63%
    01:00 +13°C° 0 mm 1 m/s 751 mmHg 64%
    02:00 +13°C° 0 mm 2 m/s 751 mmHg 66%
    03:00 +12°C° 0 mm 2 m/s 751 mmHg 68%
    04:00 +12°C° 0 mm 2 m/s 751 mmHg 69%
    05:00 +12°C° 0 mm 2 m/s 751 mmHg 71%
    06:00 +12°C° 0 mm 2 m/s 751 mmHg 73%
    07:00 +12°C° 0 mm 2 m/s 751 mmHg 74%
    08:00 +13°C° 0 mm 2 m/s 752 mmHg 68%
    09:00 +15°C° 0 mm 2 m/s 752 mmHg 62%
    10:00 +17°C° 0 mm 2 m/s 752 mmHg 55%
    11:00 +18°C° 0 mm 2 m/s 752 mmHg 52%
    12:00 +19°C° 0 mm 2 m/s 752 mmHg 48%
    13:00 +20°C° 0 mm 2 m/s 752 mmHg 45%
    14:00 +20°C° 0 mm 2 m/s 751 mmHg 47%
    15:00 +19°C° 0 mm 2 m/s 751 mmHg 49%
    16:00 +20°C° 0 mm 1 m/s 751 mmHg 52%
    17:00 +19°C° 0 mm 1 m/s 751 mmHg 54%
    18:00 +16°C° 0 mm 1 m/s 751 mmHg 57%
    19:00 +15°C° 0 mm 1 m/s 751 mmHg 59%
    20:00 +15°C° 0 mm 1 m/s 751 mmHg 59%
    21:00 +15°C° 0 mm 2 m/s 751 mmHg 60%
    22:00 +14°C° 0 mm 2 m/s 751 mmHg 60%
    23:00 +14°C° 0 mm 2 m/s 751 mmHg 60%

    Depois de amanhã, 18 Outubro, Quinta-feira

    Tempo Temperatura Precipitação Vento Pressão Humidade
    00:00 +13°C° 0 mm 1 m/s 751 mmHg 60%
    01:00 +13°C° 0 mm 1 m/s 751 mmHg 60%
    02:00 +13°C° 0 mm 1 m/s 751 mmHg 61%
    03:00 +12°C° 0 mm 1 m/s 751 mmHg 61%
    04:00 +12°C° 0 mm 1 m/s 751 mmHg 61%
    05:00 +12°C° 0.1 mm 1 m/s 751 mmHg 63%
    06:00 +12°C° 0.1 mm 1 m/s 751 mmHg 64%
    07:00 +12°C° 0.1 mm 1 m/s 751 mmHg 66%
    08:00 +13°C° 0 mm 1 m/s 751 mmHg 63%
    09:00 +15°C° 0 mm 1 m/s 751 mmHg 60%
    10:00 +16°C° 0 mm 1 m/s 751 mmHg 56%
    11:00 +18°C° 0 mm 1 m/s 751 mmHg 53%
    12:00 +19°C° 0 mm 1 m/s 751 mmHg 50%
    13:00 +20°C° 0 mm 1 m/s 751 mmHg 47%
    14:00 +20°C° 0 mm 1 m/s 751 mmHg 50%
    15:00 +19°C° 0 mm 1 m/s 751 mmHg 53%
    16:00 +18°C° 0 mm 1 m/s 751 mmHg 56%
    17:00 +16°C° 0 mm 1 m/s 751 mmHg 59%
    18:00 +15°C° 0 mm 1 m/s 751 mmHg 63%
    19:00 +14°C° 0 mm 1 m/s 751 mmHg 66%
    20:00 +14°C° 0 mm 1 m/s 751 mmHg 67%
    21:00 +14°C° 0 mm 1 m/s 751 mmHg 68%
    22:00 +14°C° 0 mm 1 m/s 751 mmHg 69%
    23:00 +13°C° 0 mm 1 m/s 751 mmHg 72%

    19 Outubro, Sexta-feira

    Tempo Temperatura Precipitação Vento Pressão Humidade
    00:00 +12°C° 0 mm 1 m/s 751 mmHg 75%
    01:00 +12°C° 0 mm 1 m/s 751 mmHg 78%
    02:00 +12°C° 0 mm 1 m/s 751 mmHg 80%
    03:00 +11°C° 0 mm 1 m/s 751 mmHg 81%
    04:00 +11°C° 0 mm 1 m/s 751 mmHg 83%
    05:00 +11°C° 0 mm 1 m/s 751 mmHg 85%
    06:00 +11°C° 0 mm 1 m/s 752 mmHg 86%
    07:00 +10°C° 0 mm 2 m/s 752 mmHg 88%
    08:00 +13°C° 0 mm 2 m/s 752 mmHg 83%
    09:00 +14°C° 0 mm 2 m/s 752 mmHg 78%
    10:00 +15°C° 0 mm 2 m/s 753 mmHg 72%
    11:00 +16°C° 0 mm 2 m/s 753 mmHg 71%
    12:00 +16°C° 0 mm 2 m/s 753 mmHg 70%
    13:00 +17°C° 0 mm 2 m/s 753 mmHg 69%
    14:00 +16°C° 0 mm 2 m/s 753 mmHg 71%
    15:00 +16°C° 0 mm 2 m/s 753 mmHg 73%
    16:00 +16°C° 0 mm 2 m/s 753 mmHg 75%
    17:00 +15°C° 0 mm 2 m/s 753 mmHg 79%
    18:00 +14°C° 0 mm 2 m/s 753 mmHg 83%
    19:00 +13°C° 0 mm 2 m/s 754 mmHg 87%
    20:00 +12°C° 0 mm 2 m/s 754 mmHg 88%
    21:00 +12°C° 0 mm 2 m/s 754 mmHg 89%
    22:00 +10°C° 0 mm 2 m/s 754 mmHg 90%
    23:00 +10°C° 0 mm 2 m/s 754 mmHg 91%

    20 Outubro, Sábado

    Tempo Temperatura Precipitação Vento Pressão Humidade
    00:00 +9°C° 0 mm 2 m/s 754 mmHg 91%
    01:00 +9°C° 0 mm 2 m/s 754 mmHg 92%
    02:00 +8°C° 0 mm 2 m/s 755 mmHg 93%
    03:00 +8°C° 0 mm 2 m/s 755 mmHg 94%
    04:00 +7°C° 0 mm 2 m/s 755 mmHg 95%
    05:00 +7°C° 0 mm 2 m/s 755 mmHg 95%
    06:00 +7°C° 0 mm 2 m/s 755 mmHg 95%
    07:00 +7°C° 0 mm 2 m/s 756 mmHg 94%
    08:00 +8°C° 0 mm 3 m/s 756 mmHg 85%
    09:00 +9°C° 0 mm 3 m/s 756 mmHg 76%
    10:00 +11°C° 0 mm 3 m/s 756 mmHg 66%
    11:00 +11°C° 0 mm 4 m/s 757 mmHg 64%
    12:00 +11°C° 0 mm 4 m/s 757 mmHg 62%
    13:00 +11°C° 0 mm 4 m/s 757 mmHg 59%
    14:00 +11°C° 0 mm 4 m/s 757 mmHg 62%
    15:00 +11°C° 0 mm 4 m/s 757 mmHg 65%
    16:00 +10°C° 0 mm 3 m/s 756 mmHg 68%
    17:00 +10°C° 0 mm 3 m/s 757 mmHg 72%
    18:00 +9°C° 0 mm 3 m/s 757 mmHg 76%
    19:00 +9°C° 0 mm 3 m/s 757 mmHg 80%
    20:00 +9°C° 0 mm 3 m/s 757 mmHg 81%
    21:00 +9°C° 0 mm 3 m/s 757 mmHg 82%
    22:00 +9°C° 0 mm 3 m/s 757 mmHg 83%
    23:00 +9°C° 0 mm 3 m/s 757 mmHg 84%

    21 Outubro, Domingo

    Tempo Temperatura Precipitação Vento Pressão Humidade
    00:00 +8°C° 0 mm 4 m/s 757 mmHg 84%
    01:00 +8°C° 0 mm 4 m/s 757 mmHg 85%
    02:00 +8°C° 0 mm 4 m/s 756 mmHg 86%
    03:00 +9°C° 0 mm 3 m/s 756 mmHg 87%
    04:00 +8°C° 0 mm 3 m/s 756 mmHg 88%
    05:00 +8°C° 0 mm 3 m/s 756 mmHg 89%
    06:00 +8°C° 0 mm 3 m/s 756 mmHg 90%
    07:00 +7°C° 0 mm 3 m/s 756 mmHg 90%
    08:00 +9°C° 0 mm 3 m/s 756 mmHg 83%
    09:00 +10°C° 0 mm 3 m/s 756 mmHg 75%
    10:00 +11°C° 0 mm 4 m/s 756 mmHg 67%
    11:00 +12°C° 0 mm 4 m/s 756 mmHg 62%
    12:00 +13°C° 0 mm 4 m/s 756 mmHg 57%
    13:00 +14°C° 0 mm 5 m/s 755 mmHg 51%
    14:00 +13°C° 0 mm 4 m/s 755 mmHg 54%
    15:00 +13°C° 0 mm 4 m/s 755 mmHg 57%
    16:00 +12°C° 0 mm 4 m/s 754 mmHg 60%
    17:00 +12°C° 0 mm 4 m/s 754 mmHg 61%
    18:00 +11°C° 0 mm 4 m/s 754 mmHg 63%
    19:00 +11°C° 0 mm 4 m/s 754 mmHg 64%
    20:00 +11°C° 0 mm 4 m/s 754 mmHg 65%
    21:00 +11°C° 0 mm 4 m/s 753 mmHg 66%
    22:00 +10°C° 0 mm 4 m/s 753 mmHg 67%
    23:00 +11°C° 0 mm 4 m/s 753 mmHg 67%
    Mostrar mais